This demonstration page uses our WeatherBlox Daily Observations layout. Learn more.

Left ArrowRight Arrow

34.02893, -84.19858

Hourly Observations for February 15, 2022

Temp ( °F °C ) Dew Point ( °F °C ) Humidity (%) Winds ( mph kmh ) Pressure ( in mb ) Visibility ( mi km ) Precip ( " mm )
12:53 am 00:53 Clear 32 0 25 -3.9 75 75 Calm 30.42 1030 8 13 0.00 0.00
1:53 am 01:53 Clear 32 0 26 -3.3 79 79 Calm 30.42 1030 8 13 0.00 0.00
2:53 am 02:53 Clear 30 -1.1 26 -3.3 85 85 Calm 30.42 1030 7 11 0.00 0.00
3:53 am 03:53 Clear 30 -1.1 26 -3.3 85 85 Calm 30.43 1031 7 11 0.00 0.00
4:53 am 04:53 Clear 30 -1.1 26 -3.3 85 85 Calm 30.45 1031 7 11 0.00 0.00
5:53 am 05:53 Clear 29 -1.7 25 -3.9 85 85 Calm 30.47 1032 7 11 0.00 0.00
6:53 am 06:53 Clear 30 -1.1 25 -3.9 82 82 Calm 30.50 1033 9 14 0.00 0.00
7:53 am 07:53 Sunny 36 2.2 24 -4.4 62 62 ENE 3 6 30.52 1034 10 16 0.00 0.00
8:53 am 08:53 Sunny 42 5.6 25 -3.9 51 51 Calm 30.55 1035 10 16 0.00 0.00
9:53 am 09:53 Sunny 45 7.2 23 -5 42 42 Calm 30.58 1035 10 16 0.00 0.00
10:53 am 10:53 Sunny 50 10 24 -4.4 36 36 E 7 11 30.58 1036 10 16 0.00 0.00
11:53 am 11:53 Sunny 54 12.2 24 -4.4 31 31 VRB 5 7 30.57 1035 10 16 0.00 0.00
12:53 pm 12:53 Sunny 56 13.3 25 -3.9 30 30 ENE 6 9 30.55 1034 10 16 0.00 0.00
1:53 pm 13:53 Sunny 58 14.4 25 -3.9 28 28 VRB 6 9 30.51 1033 10 16 0.00 0.00
2:53 pm 14:53 Sunny 59 15 26 -3.3 28 28 SE 8 13 30.48 1032 10 16 0.00 0.00
3:53 pm 15:53 Sunny 60 15.6 26 -3.3 27 27 VRB 7 11 30.47 1032 10 16 0.00 0.00
4:53 pm 16:53 Sunny 60 15.6 26 -3.3 27 27 ESE 7 11 30.46 1032 10 16 0.00 0.00
5:53 pm 17:53 Sunny 58 14.4 27 -2.8 31 31 VRB 5 7 30.47 1032 10 16 0.00 0.00
6:53 pm 18:53 Clear 54 12.2 27 -2.8 35 35 E 3 6 30.48 1032 10 16 0.00 0.00
7:53 pm 19:53 Clear 52 11.1 27 -2.8 38 38 E 6 9 30.49 1032 10 16 0.00 0.00
8:53 pm 20:53 Clear 51 10.6 27 -2.8 39 39 VRB 3 6 30.49 1033 10 16 0.00 0.00
9:53 pm 21:53 Clear 50 10 27 -2.8 41 41 VRB 3 6 30.50 1033 10 16 0.00 0.00
10:53 pm 22:53 Clear 48 8.9 27 -2.8 44 44 VRB 3 6 30.50 1033 10 16 0.00 0.00
11:53 pm 23:53 Clear 48 8.9 27 -2.8 44 44 E 5 7 30.49 1033 10 16 0.00 0.00

Powered by AerisWeather